Location: Caltech
(34.1382°N, 118.1253°W)
Time: 13:29:46
(UTC-07:00)

ASTRO E2 - Visible Passes

Search period start: 24 October 2014 00:00
Search period end: 02 November 2014 23:00
Orbit: 532 x 540 km, 31.4° (Epoch: 23 October)

Date Brightness Start Highest point End Pass type
(mag) Time Alt. Az. Time Alt. Az. Time Alt. Az.
24 Oct 5.3 05:41:52 10° SSW 05:44:19 16° SSE 05:46:47 10° ESE visible
25 Oct 5.0 05:31:01 13° SSW 05:33:11 19° SSE 05:36:07 10° ESE visible
26 Oct 4.5 05:20:58 21° S 05:22:03 23° SSE 05:25:18 10° ESE visible
27 Oct 4.3 05:10:48 27° SSE 05:10:54 28° SSE 05:14:24 10° ESE visible
28 Oct 4.3 05:00:33 30° SE 05:00:33 30° SE 05:03:25 10° E visible
28 Oct 3.2 06:36:27 10° WSW 06:40:28 58° S 06:44:29 10° E visible
29 Oct 4.7 04:50:13 26° ESE 04:50:13 26° ESE 04:52:24 10° E visible
29 Oct 3.1 06:25:32 11° WSW 06:29:21 59° S 06:33:22 10° E visible
30 Oct 5.2 04:39:50 20° ESE 04:39:50 20° ESE 04:41:19 10° E visible
30 Oct 3.1 06:15:08 16° WSW 06:18:13 59° S 06:22:14 10° ESE visible
31 Oct 5.6 04:29:24 15° E 04:29:24 15° E 04:30:13 10° E visible
31 Oct 3.1 06:04:42 23° WSW 06:07:04 57° S 06:11:04 10° ESE visible
01 Nov 6.0 04:18:56 11° E 04:18:56 11° E 04:19:05 10° E visible
01 Nov 3.1 05:54:14 31° WSW 05:55:54 54° S 05:59:53 10° ESE visible
02 Nov 3.2 04:43:45 40° SW 04:44:42 50° S 04:48:40 10° ESE visible
